Location: Tierz
(42.1336°N, 0.3549°W)
Time: 16:06:51
(UTC+00:00)

H-2A R/B - Pass Details

Date: 29 October 2020
Orbit: 733 x 837 km, 98.2° (Epoch: 24 November)

Event Time Altitude Azimuth Distance (km) Brightness Sun altitude
Exits shadow 19:37:07 10° 189° (S) 2,443 4.6 -29.9°
Reaches altitude 10° 19:37:10 10° 190° (S) 2,425 4.6 -29.9°
Maximum altitude 19:42:19 45° 262° (W) 1,131 3.1 -30.8°
Drops below altitude 10° 19:47:33 10° 334° (NNW) 2,459 5.0 -31.8°
Sets 19:50:02 0° 341° (NNW) 3,395 5.7 -32.2°
